THORAD AGENA D DEB, 6767

Orbit data source: Space-Track

THORAD AGENA D DEB, 6767 is space debris in SSO originally from a launch on Wed, 08 Apr 1970 UTC launched from the Air Force Western Test Range (AFWTR). Debris objects in space refer to the collection of defunct objects orbiting the Earth. Examples of debris include non-operational satellites, rocket bodies, and fragments generated from explosions, collisions, or faulty payload assembly.

Loading next visibility...
Identifier
6767, 1970-025NF
Orbit
SSO
Country
Flag of USUS
Related business
Manufacturer
Unknown
Mission
Spacecraft
Bus & Motor
Unknown
Mass
Unknown
Launch date (UTC)
1970-04-08 (56 years ago)
Launch vehicle
Unknown
Launch site
Air Force Western Test Range (AFWTR)
Object type
Payload
Rocket body
Debris
Shape & HBR
Unknown shape, 0.1 m
Radar Cross Section
Medium (>0.1 m² and <1 m²)

Expand to show TLE details & history
Last TLE update: 4 hours ago

TLE from 4 hours ago
0 THORAD AGENA D DEB
1  6767U 70025NF  26150.16843544  .00003424  00000-0  19893-2 0  9994
2  6767  99.0196  52.6957 0018772 249.4492 110.4663 14.09275750115227
Epoch: 2026-05-30T04:02Z
TLE epoch observation values (Epoch: 2026-05-30T04:02:32.822Z)
Latitude
-0.00004°
Longitude
104.37061°
Altitude
869.516 km
Speed
7.415 km/s
True Right ascension
03h 30m 46s
True Declination
0° 00' 00"
Sunlit
Object was in daylight at epoch
Visualization orbit readout
Latitude
Unknown
Longitude
Unknown
Altitude
Unknown
Speed
Unknown
Apparent Right ascension
Unknown
Apparent Declination
Unknown
Sunlit
N/A
Visualization observer readout
Local Sidereal Time
17:51:00
Azimuth
Unknown
Elevation
Unknown
Doppler factor
Unknown
Orbital elements
Apogee altitude
872.625 km
Perigee altitude
845.453 km
Semi-major axis
7,237.176 km
Eccentricity
0.00188
Inclination
99.0196°
RAAN
52.6957°
Arg. of periapsis
249.4492°
True anomaly
110.66767°
Mean anomaly
110.4663°
Eccentric anomaly
110.567°
Mean motion
3.52525 °/min
Orbital period
102.12 mins
BSTAR
0.0019893
Loading maneuver chart data...
Computing Atmospheric mass density...

Documentation

Showing up to 5 results
|